📊 John's Weather Station

Last reading: 2022-08-08 16:23:36

TEMPERATURE

--

Temperature 20 readings
Min Max Average
11.44 °C 14.45 °C 13.16 °C

HUMIDITY

--

Humidity 20 readings
Min Max Average
89.44 % 91.50 % 90.31 %

View Latest 20 Readings

ID Sensor Location Temp Humid Bar Timestamp
130741 BME280 Lounge 11.44 91.06 1011.21 2022-08-08 16:23:36
130740 BME280 Lounge 11.60 90.63 1011.31 2022-08-08 16:14:01
130739 BME280 Lounge 11.87 90.28 1011.23 2022-08-08 16:04:24
130738 BME280 Lounge 12.17 90.28 1011.22 2022-08-08 15:54:48
130737 BME280 Lounge 12.37 90.35 1011.16 2022-08-08 15:45:12
130736 BME280 Lounge 12.43 90.35 1011.05 2022-08-08 15:35:37
130735 BME280 Lounge 12.57 90.13 1011.10 2022-08-08 15:26:00
130734 BME280 Lounge 12.76 90.00 1011.09 2022-08-08 15:16:24
130733 BME280 Lounge 12.96 89.98 1011.04 2022-08-08 15:06:48
130732 BME280 Lounge 13.10 89.87 1010.88 2022-08-08 14:57:12
130731 BME280 Lounge 13.31 89.83 1010.81 2022-08-08 14:47:36
130730 BME280 Lounge 13.46 89.66 1010.55 2022-08-08 14:38:00
130729 BME280 Lounge 13.70 89.69 1010.34 2022-08-08 14:28:24
130728 BME280 Lounge 13.99 89.44 1010.07 2022-08-08 14:18:48
130727 BME280 Lounge 14.27 90.24 1010.19 2022-08-08 14:09:12
130726 BME280 Lounge 14.22 91.16 1010.23 2022-08-08 13:59:36
130725 BME280 Lounge 13.98 90.69 1010.27 2022-08-08 13:49:59
130724 BME280 Lounge 14.11 90.27 1010.34 2022-08-08 13:40:22
130723 BME280 Lounge 14.45 90.86 1010.50 2022-08-08 13:30:47
130722 BME280 Lounge 14.45 91.50 1010.57 2022-08-08 13:21:09